Location: Unspecified
(49.2170°N, 0.0000°E)
Time: 03:00:03
(UTC+00:00)

Vanguard 3 - Pass Details

Date: 28 June 2019
Orbit: 508 x 3262 km, 33.3° (Epoch: 13 October)

Event Time Altitude Azimuth Distance (km) Brightness Sun altitude
Rises 11:09:09 0° 247° (WSW) 6,822 11.8 62.0°
Reaches altitude 10° 11:14:41 10° 240° (WSW) 5,463 11.5 62.4°
Maximum altitude 11:27:28 35° 184° (S) 2,813 11.1 63.1°
Drops below altitude 10° 11:35:32 10° 122° (ESE) 3,429 10.8 63.5°
Sets 11:38:10 0° 113° (ESE) 4,084 11.0 63.6°
